Regional Weather Roundup
Issued by NWS Burlington, VT

Home | Current Version | Previous Version | Text Only | Print | Product List | Glossary On
Versions: 1 2 3 4 5 6 7 8 9 10 11 12 13 14 15 16 17 18 19 20 21 22 23 24 25 26 27 28 29 30 31 32 33 34 35 36 37 38 39 40 41 42 43 44 45 46 47 48 49 50
000
ASUS41 KBTV 252310
RWRBTV
VERMONT REGIONAL WEATHER ROUNDUP
NATIONAL WEATHER SERVICE BURLINGTON VT
700 PM EDT SAT MAR 25 2017

NOTE: "FAIR" INDICATES FEW OR NO CLOUDS BELOW 12,000 FEET WITH NO
SIGNIFICANT WEATHER AND/OR OBSTRUCTIONS TO VISIBILITY.

* THESE REPORTS ARE NOT UNDER NWS QUALITY CONTROL AND/OR DO NOT
  REPORT WEATHER SUCH AS PRECIPITATION AND FOG.

VTZ001>019-260000-
_____VERMONT_____


CITY           SKY/WX    TMP DP  RH WIND       PRES   REMARKS
BURLINGTON     PTCLDY    32  18  56 NW9       30.42R WCI  24
MONTPELIER     PTCLDY    31  26  82 NW6       30.38R WCI  25
MORRISVILLE    CLEAR     31  22  69 N8        30.39R WCI  23
ST. JOHNSBURY*   N/A     35  22  58 MISG      30.34R
LYNDONVILLE*   FAIR      32  19  57 W9        30.35R WCI  24
MIDDLEBURY*    FAIR      32  25  76 N7        30.39R WCI  26
RUTLAND*       CLOUDY    34  31  88 NW5       30.36R WCI  30
SPRINGFIELD    CLOUDY    37  30  75 N6        30.34R
HIGHGATE*      FAIR      30  13  49 CALM      30.43R
NEWPORT*       FAIR      31  16  54 NW7       30.37R WCI  24
BENNINGTON     CLOUDY    35  32  88 CALM      30.34R
SUTTON*          N/A     28 N/A N/A MISG        N/A

_____LAKE CHAMPLAIN_____


CITY           SKY/WX    TMP DP  RH WIND       PRES   REMARKS
BURTON ISLAND*   N/A     32  21  64 N1          N/A
COLCHESTER RF*   N/A     32  19  59 NE10        N/A  WCI  24
DIAMOND ISL*     N/A     32  25  74 N14         N/A  WCI  22

$$

NYZ007-026>031-035-052-083-087-260000-
_____NORTHERN NEW YORK_____


CITY           SKY/WX    TMP DP  RH WIND       PRES   REMARKS
PLATTSBURGH    CLEAR     32  15  49 NE6       30.43R WCI  26
SARANAC LAKE   CLOUDY    30  25  81 NE6       30.32R WCI  24
MASSENA        CLEAR     35  26  69 NE5       30.44R WCI  31
WATERTOWN      CLOUDY    35  30  82 NE15      30.39R WCI  25
FT DRUM        CLOUDY    35  28  76 NE8       30.37R WCI  28
ALBANY         CLOUDY    38  32  79 N6        30.38R
GLENS FALLS    CLOUDY    37  28  70 NE8       30.38R WCI  31

$$
NHZ002-005-011-260000-
_____NEW HAMPSHIRE_____


CITY           SKY/WX    TMP DP  RH WIND       PRES   REMARKS
LEBANON        CLOUDY    38  29  70 VRB7      30.34R
KEENE          MOCLDY    35  33  92 CALM      30.33R
MT WASHINGTON  PTCLDY    18 -22  16 NW47        N/A  WCI  -6
PLYMOUTH       FAIR      36  26  67 W6        30.32R WCI  31
WHITEFIELD     CLEAR     33  21  61 W3        30.32R

$$

_____REGIONAL QUEBEC LOCATIONS_____


CITY           SKY/WX    TMP DP  RH WIND       PRES   REMARKS
MONTREAL       PTCLDY    32  18  55 SW8       30.43R WCI  25
QUEBEC CITY    CLEAR     32   1  27 NW8       30.39R WCI  25
SHERBROOKE     CLEAR     30   5  34 NW6       30.37R WCI  24

_____REGIONAL ONTARIO LOCATIONS_____


CITY           SKY/WX    TMP DP  RH WIND       PRES   REMARKS
OTTAWA         PTCLDY    36  19  51 SW3       30.42R

______KEY______
VSB  - VISIBILITY IN MILES
WCI  - WIND CHILL INDEX
HX   - HEAT INDEX
$$
NNNN




USA.gov is the U.S. government's official web portal to all federal, state and local government web resources and services.